Tracking 20083 objects as of 12-Dec-2019
HD Live streaming from Space Station
objects crossing your sky now

COSMOS 2251 DEB

Track COSMOS 2251 DEB now!
10-day predictions


NORAD ID: 35670
Int'l Code: 1993-036APM
Perigee: 652.8 km
Apogee: 740.8 km
Inclination: 73.9 °
Period: 98.6 minutes
Semi major axis: 7067 km
RCS: 0.0003 m2 (small)
Launch date: June 16, 1993
Source: Commonwealth of Independent States (former USSR) (CIS)
Launch site: PLESETSK MISSILE AND SPACE COMPLEX (PKMTR)

Note: This is SATELLITE DEBRIS
aabbcc
Your satellite tracking list
Your tracking list is empty




NASA's NSSDC Master Catalog

Two Line Element Set (TLE):
1 35670U 93036APM 19345.38709400  .00000454  00000-0  96306-4 0  9996
2 35670  73.9085  25.7038 0062262 117.1048 243.6487 14.61085304556215
Source of the keplerian elements: AFSPC